Location: Newark
(43.0000°N, 1.6781°W)
Time: 03:38:55
(UTC+00:00)

Explorer 7 - Pass Details

Date: 26 April 2021
Orbit: 484 x 677 km, 50.3° (Epoch: 07 May)

Event Time Altitude Azimuth Distance (km) Brightness Sun altitude
Rises 00:16:13 0° 296° (WNW) 2,789 10.7 -33.4°
Enters shadow 00:16:41 - 295° (WNW) 2,606 10.5 -33.4°
Reaches altitude 10° 00:18:30 10° 289° (WNW) 1,921 - -33.4°
Maximum altitude 00:22:39 41° 219° (SW) 890 - -33.3°
Drops below altitude 10° 00:27:02 10° 150° (SSE) 2,022 - -33.2°
Sets 00:29:30 0° 143° (SE) 2,954 - -33.2°
